Nnamdi Azikiwe International Airport

Airport
ICAO code: 
DNAA
IATA Code: 
ABV
Summary
ICAO Region: 
AFI
Territory: 
Location: 
Gwaska, Federal Capital Territory
Serving: 
Abuja
Elevation: 
1123 ft
Coordinates: 
Aerial View: 
9° 0' 24.012" N, 7° 15' 47.988" E
Metar
Observation
DNAA 201100Z 07004KT 8000 NSC 32/12 Q1015 NOSIG
Station
ABUJA
Date/Time
2022-01-20 11:00:00
Wind direction
70°
Wind speed
04 kts
Lowest cloud amount
nil significant cloud
Temperature
32°C
Dew point
12°C
Humidity
29%
QNH
1015 hPa
Weather condition
n/a

Nnamdi Azikiwe International Airport is located in Abuja, Federal Capital Territory, Nigeria, and is the main airport serving the Nigerian capital city.

Climatology

Tropical Savanna climate (Köppen climate classification Aw)

Runways

Designator Length Width Surface Rops
4/22 3609 60 ASP Yes/Yes
Airport map: 
Aerial View: 

Accidents and Serious Incidents at or in the vicinity of DNAA

SKYbrary Partners:

Safety knowledge contributed by: